FW1036 Weather Reports


time (UTC)temp
C
wind
direction
speed
KPH
gust
KPH
rain 1hr
cm
rain 24hr
cm
rain mn
cm
humidity
%
barometer
mb
20260903010034 21 273 0.0 3.2 0.03 1.04 1.04 92 1010.2
20260903004534 21 273 0.0 3.2 0.15 1.04 1.04 92 1010.0
20260903003034 21 269 1.6 3.2 0.30 1.02 1.02 91 1010.0
20260903001534 21 213 0.0 9.7 0.30 1.02 1.02 91 1009.7
20260903000031 21 278 0.0 4.8 0.30 1.02 1.02 91 1009.8
20260902234529 22 186 6.4 11.3 0.13 0.84 0.84 91 1010.5
20260902233026 22 223 0.0 3.2 0.00 0.71 0.71 91 1009.6
20260902231530 22 223 0.0 3.2 0.00 0.71 0.71 90 1009.6
20260902230016 21 225 1.6 8.0 0.00 0.71 0.71 91 1010.4
20260902224514 21 165 4.8 12.9 0.03 0.71 0.71 91 1010.2
20260902223012 21 165 8.0 22.5 0.13 0.71 0.71 91 1010.1
20260902221517 21 13 0.0 1.6 0.13 0.71 0.71 91 1009.4
20260902220010 21 19 1.6 6.4 0.13 0.71 0.71 90 1009.3
20260902214512 21 214 3.2 11.3 0.10 0.69 0.69 89 1009.8
20260902213008 21 355 0.0 6.4 0.00 0.58 0.58 90 1009.7
20260902211506 21 327 1.6 6.4 0.58 0.58 0.58 90 1009.7
20260902210004 20 260 1.6 4.8 0.58 0.58 0.58 90 1009.6
20260902204600 20 317 1.6 8.0 0.58 0.58 0.58 89 1009.6
20260902203104 19 338 1.6 14.5 0.58 0.58 0.58 89 1009.9
20260902200021 29 281 8.0 16.1 0.00 0.00 0.00 74 1010.3
20260902194523 30 252 3.2 12.9 0.00 0.00 0.00 72 1009.5
20260902193015 31 274 4.8 16.1 0.00 0.00 0.00 71 1009.5
20260902191518 30 270 1.6 14.5 0.00 0.00 0.00 72 1009.7
20260902190012 30 267 1.6 14.5 0.00 0.00 0.00 72 1009.8
20260902184512 30 195 1.6 14.5 0.00 0.00 0.00 71 1009.8
20260902183010 30 190 1.6 8.0 0.00 0.00 0.00 69 1009.9
20260902181611 30 259 4.8 14.5 0.00 0.00 0.00 69 1010.0
20260902180008 30 199 4.8 12.9 0.00 0.00 0.00 69 1009.9
20260902174507 30 252 4.8 12.9 0.00 0.00 0.00 69 1009.9
20260902173003 30 196 1.6 16.1 0.00 0.00 0.00 72 1010.4
20260902171502 30 205 3.2 12.9 0.00 0.00 0.00 68 1010.8
20260902170059 30 144 4.8 12.9 0.00 0.00 0.00 71 1011.0
20260902164559 29 288 1.6 9.7 0.00 0.00 0.00 72 1011.5
20260902163055 28 276 6.4 14.5 0.00 0.00 0.00 70 1011.7
20260902161557 29 215 4.8 12.9 0.00 0.00 0.00 71 1011.8
20260902160055 28 311 8.0 16.1 0.00 0.00 0.00 73 1011.9
20260902154604 28 299 4.8 16.1 0.00 0.00 0.00 76 1012.1
20260902153042 27 265 3.2 14.5 0.00 0.00 0.00 79 1012.0
20260902151540 27 276 3.2 12.9 0.00 0.00 0.00 78 1011.8
20260902150037 28 308 4.8 14.5 0.00 0.00 0.00 78 1011.5
20260902144534 27 260 3.2 12.9 0.00 0.00 0.00 79 1011.4
20260902143031 27 265 1.6 12.9 0.00 0.00 0.00 79 1011.4
20260902141527 27 296 1.6 9.7 0.00 0.00 0.00 81 1011.3
20260902140023 26 230 0.0 4.8 0.00 0.00 0.00 84 1011.0
20260902134519 25 262 0.0 6.4 0.00 0.00 0.00 87 1011.3
20260902133016 25 250 1.6 8.0 0.00 0.00 0.00 88 1011.4
20260902131512 23 257 0.0 4.8 0.00 0.00 0.00 90 1011.4
20260902130008 23 252 1.6 4.8 0.00 0.00 0.00 90 1011.3
20260902124509 23 243 0.0 6.4 0.00 0.00 0.00 90 1011.1
20260902123006 23 165 0.0 6.4 0.00 0.00 0.00 91 1011.0
20260902121504 22 278 0.0 3.2 0.00 0.00 0.00 91 1010.8
20260902120002 22 281 0.0 1.6 0.00 0.00 0.00 91 1010.9
20260902114619 22 266 0.0 0.0 0.00 0.00 0.00 92 1010.9
20260902113107 22 266 0.0 0.0 0.00 0.00 0.00 92 1010.9
20260902111601 22 266 0.0 0.0 0.00 0.00 0.00 92 1011.0
20260902110055 21 266 0.0 0.0 0.00 0.00 0.00 92 1011.2
20260902104556 21 266 0.0 3.2 0.00 0.00 0.00 92 1011.0
20260902103106 21 211 0.0 1.6 0.00 0.00 0.00 92 1010.9
20260902101554 21 211 0.0 1.6 0.00 0.00 0.00 92 1010.9
20260902100119 22 211 0.0 0.0 0.00 0.00 0.00 92 1010.7
20260902094611 22 211 0.0 1.6 0.00 0.00 0.00 92 1010.8
20260902093109 22 211 0.0 0.0 0.00 0.00 0.00 92 1010.9
20260902091549 22 211 0.0 1.6 0.00 0.00 0.00 92 1010.9
20260902090049 22 211 0.0 0.0 0.00 0.00 0.00 92 1010.8
20260902084547 22 211 0.0 0.0 0.00 0.00 0.00 92 1010.9
20260902083046 22 211 0.0 0.0 0.00 0.00 0.00 91 1010.9
20260902081548 22 211 0.0 0.0 0.00 0.00 0.00 91 1010.7
20260902080045 22 211 0.0 1.6 0.00 0.00 0.00 92 1010.8
20260902074544 22 223 0.0 3.2 0.00 0.00 0.00 92 1010.8
20260902073048 22 242 0.0 3.2 0.00 0.00 0.00 92 1010.8
20260902071546 22 241 0.0 1.6 0.00 0.00 0.00 92 1010.7
20260902070041 22 226 0.0 6.4 0.00 0.00 0.00 92 1010.7
20260902064542 22 225 0.0 4.8 0.00 0.00 0.00 91 1010.9
20260902063037 23 204 1.6 6.4 0.00 0.00 0.00 91 1011.0
20260902061544 23 227 1.6 3.2 0.00 0.00 0.00 91 1011.0
20260902060045 23 227 1.6 4.8 0.00 0.00 0.00 91 1011.1
20260902054540 23 234 0.0 0.0 0.00 0.00 0.00 91 1011.3
20260902053034 23 234 0.0 1.6 0.00 0.00 0.00 91 1011.3
20260902051533 23 234 0.0 1.6 0.00 0.00 0.00 91 1011.5
20260902050038 23 234 1.6 4.8 0.00 0.00 0.00 91 1011.2
20260902044524 23 254 0.0 3.2 0.00 0.00 0.00 91 1011.2
20260902043020 23 224 0.0 3.2 0.00 0.00 0.00 91 1011.2
20260902041522 23 217 0.0 4.8 0.00 0.00 0.00 91 1011.3
20260902040014 23 225 0.0 6.4 0.00 0.00 0.00 92 1011.3
20260902034510 23 198 3.2 6.4 0.00 0.00 0.00 92 1011.0
20260902033009 23 229 1.6 6.4 0.00 0.00 0.00 92 1011.0
20260902031508 22 134 0.0 0.0 0.00 0.00 0.00 92 1011.2
20260902030009 22 134 0.0 0.0 0.00 0.00 0.00 91 1011.2
20260902024508 23 134 0.0 0.0 0.00 0.00 0.00 91 1011.2
20260902023007 23 134 0.0 3.2 0.00 0.00 0.00 91 1011.2
20260902021513 23 134 0.0 4.8 0.00 0.00 0.00 90 1011.2
20260902020006 23 134 3.2 6.4 0.00 0.00 0.00 90 1011.2
20260902014506 23 138 0.0 1.6 0.00 0.00 0.00 90 1011.3
20260902013005 23 134 3.2 6.4 0.00 0.00 0.00 89 1011.3
20260902011505 23 152 1.6 4.8 0.00 0.00 0.00 89 1011.1